Regional Weather Roundup
Issued by NWS

Home | Current Version | Previous Version | Text Only | Print | Product List | Glossary On
Versions: 1 2 3 4 5 6 7 8 9 10 11 12 13 14 15 16 17 18 19 20 21 22 23 24 25 26 27 28 29 30 31 32 33 34 35 36 37 38 39 40 41 42 43 44 45 46 47 48 49 50
000
ASUS43 KMKX 211910
RWRWI

WISCONSIN REGIONAL WEATHER ROUNDUP
NATIONAL WEATHER SERVICE MILWAUKEE/SULLIVAN WI
100 PM CST TUE NOV 21 2017

NOTE: "FAIR" INDICATES FEW OR NO CLOUDS BELOW 12,000 FEET WITH NO
SIGNIFICANT WEATHER AND/OR OBSTRUCTIONS TO VISIBILITY.

WIZ001-002-006>008-014>016-023>028-212000-
NORTHWEST WISCONSIN

CITY           SKY/WX    TMP DP  RH WIND       PRES   REMARKS
SUPERIOR ARPT  SUNNY     27   8  45 NW13G21   30.06R WCI  16
ASHLAND        MOSUNNY   26   9  48 W15G22    30.02R WCI  14
HAYWARD        MOSUNNY   25   9  50 NW9G18    30.01R WCI  15
SIREN          SUNNY     27  10  47 N14G24    30.06R WCI  16
CUMBERLAND     MOSUNNY   27  10  50 NW21      30.02R WCI  13
RICE LAKE      CLOUDY    26  12  56 NW15G23   30.05R WCI  13
CHETEK         CLOUDY    26  14  59 NW12G21   30.03R WCI  16
LADYSMITH      CLOUDY    26  13  59 NW16G26   30.00R WCI  13
EAU CLAIRE     PTSUNNY   27  11  51 NW18G28   30.02R WCI  14
MENOMONIE      PTSUNNY   29  12  50 NW20G26   30.05R WCI  16
NEW RICHMOND   MOSUNNY   26  11  54 NW18G25   30.07R WCI  13
OSCEOLA        MOSUNNY   28  13  53 NW14G24   30.12R WCI  17
$$

WIZ003>005-009-010-017-018-212000-
NORTH CENTRAL WISCONSIN

CITY           SKY/WX    TMP DP  RH WIND       PRES   REMARKS
MANITOWISH WTR LGT SNOW  20  16  82 NW14G24   29.89R WCI   7
ARBOR VITAE    LGT SNOW  23  17  77 N18G28    29.88R WCI   9
WOODRUFF       LGT SNOW  23  17  77 N18G28    29.88R WCI   9
RHINELANDER    FLURRIES  24  14  65 NW18G28   29.86R WCI  10
EAGLE RIVER    LGT SNOW  22  17  78 NW13G22   29.84R WCI  10
LAND O LAKES   LGT SNOW  22  17  79 NW14G23   29.86R VSB 1   WCI  10
PHILLIPS       FLURRIES  23  13  67 NW8G18    29.92R WCI  14
TOMAHAWK       CLOUDY    25  12  58 NW17G23   29.90R WCI  11
MEDFORD        CLOUDY    25  11  57 NW17G26   29.91R WCI  11
MERRILL        CLOUDY    26  13  58 NW18G28   29.90R WCI  12
$$

WIZ029-030-035-036-043>047-212000-
CENTRAL WISCONSIN

CITY           SKY/WX    TMP DP  RH WIND       PRES   REMARKS
WAUSAU         CLOUDY    27  11  51 NW15G30   29.89R WCI  15
MOSINEE        CLOUDY    27  12  54 NW20G28   29.91R WCI  13
MARSHFIELD     CLOUDY    26  11  52 NW22G33   29.92R WCI  12
STEVENS POINT  CLOUDY    26  10  50 NW14G25   29.92R WCI  14
WAUPACA        CLOUDY    32  12  43 W15G26    29.89R WCI  22
WAUTOMA        CLOUDY    30  13  49 NW21G28   29.92R WCI  17
WISC RAPIDS    CLOUDY    28  11  48 N14G28    29.94R WCI  17
CAMP DOUGLAS   PTSUNNY   28  12  50 NW18G26   29.95R WCI  16
$$

WIZ011>013-019>022-031-037>040-048>050-212000-
NORTHEAST WISCONSIN

CITY           SKY/WX    TMP DP  RH WIND       PRES   REMARKS
ANTIGO         CLOUDY    25  13  60 NW20G25   29.86R WCI  11
SHAWANO        CLOUDY    32  13  45 NW13G22   29.86R WCI  23
OCONTO         CLOUDY    31  13  47 NW14G24   29.85R WCI  21
STURGEON BAY   CLOUDY    32  17  54 NW20      29.82R WCI  20
GREEN BAY      CLOUDY    32  18  56 NW16G25   29.86R WCI  21
MANITOWOC      CLOUDY    34  17  50 NW17G25   29.84R WCI  23
APPLETON       CLOUDY    30  10  43 NW17G25   29.84R WCI  18
CLINTONVILLE   CLOUDY    30  10  43 NW17G28   29.88R WCI  18
OSHKOSH        CLOUDY    31  18  58 NW16G25   29.87R WCI  20
$$

WIZ032>034-041-042-053>061-212000-
SOUTHWEST WISCONSIN

CITY           SKY/WX    TMP DP  RH WIND       PRES   REMARKS
LA CROSSE      MOSUNNY   32  13  45 NW20G29   30.01R WCI  20
SPARTA         PTSUNNY   30  13  49 W17G25    30.00R WCI  18
VIROQUA        PTSUNNY   30  17  57 NW17G23   29.95R WCI  18
BOSCOBEL       CLOUDY    33  17  51 NW14G25   29.99R WCI  23
PRAIRIE DU CHI PTSUNNY   32  16  51 NW15G24   30.00R WCI  22
PLATTEVILLE    CLOUDY    33  21  61 NW20G28   29.95R WCI  21
$$

WIZ056-057-062-063-064-067-068-212000-
SOUTH CENTRAL WISCONSIN

CITY           SKY/WX    TMP DP  RH WIND       PRES   REMARKS
REEDSBURG      MOSUNNY   32  13  47 NW20G25   29.93R WCI  20
BARABOO/DELLS  MOSUNNY   32  12  43 NW14G25   29.92R WCI  22
LONE ROCK      CLOUDY    35  18  49 NW17G23   29.95R WCI  25
MINERAL POINT  CLOUDY    32  19  59 NW18G24   29.93R WCI  20
MADISON        PTSUNNY   33  16  49 N15G23    29.91R WCI  23
MIDDLETON      CLOUDY    35  19  52 NW17G24   29.91R WCI  24
WATERTOWN      CLOUDY    31  15  51 NW18G24   29.89R WCI  20
MONROE         CLOUDY    34  18  51 NW15G21   29.90R WCI  24
JANESVILLE     PTSUNNY   36  19  51 NW18G26   29.89R WCI  25
$$

WIZ051-052-058>065-066-070>072-212000-
SOUTHEAST WISCONSIN

CITY           SKY/WX    TMP DP  RH WIND       PRES   REMARKS
MILWAUKEE      CLOUDY    35  17  47 NW23G32   29.87R WCI  23
WAUKESHA       PTSUNNY   30  16  55 NW17G32   29.88R WCI  18
MILWAUKEE/TIMM MOSUNNY   34  14  44 NW18G29   29.87R WCI  23
RACINE         CLOUDY    36  19  50 NW18G33   29.87R WCI  26
BURLINGTON     CLOUDY    34  21  58 NW20G25   29.89R WCI  23
KENOSHA        CLOUDY    38  20  48 NW21G31   29.85R WCI  28
FOND DU LAC    CLOUDY    33  15  47 NW22G31   29.88R WCI  21
SHEBOYGAN      CLOUDY    32  19  58 W20G28    29.85R WCI  20
WEST BEND      CLOUDY    32  18  55 NW21      29.86R WCI  20
JUNEAU         CLOUDY    32  16  51 NW10G25   29.90R WCI  23
$$

LSZ147-162-212000-
LAKE SUPERIOR

STATION/POSITION TIME  TEMP    WIND        PRES    WAVE
                       AIR SEA DIR/SP/G            HT/PER
                 (UTC) (F)     (DEG/KT/KT) (MB)    (FT/S)
DEVILS ISLAND    1900   22     320/ 21/ 26 1017.6R
SAXON HARBOR     1840   24     320/ 21/ 26 1015.6R
$$

LMZ867-665-643>646-212000-
LAKE MICHIGAN

STATION/POSITION TIME  TEMP    WIND        PRES    WAVE
                       AIR SEA DIR/SP/G            HT/PER
                 (UTC) (F)     (DEG/KT/KT) (MB)    (FT/S)
N MID LAKE BUOY  1850   34 47  290/ 23/ 29 1008.5R   7/ 6
NORTHPORT PIER   1843   33     300/ 14     1008.8R
KEWAUNEE LAKESHO 1842   34     320/ 11/ 17 1008.8R
SHEBOYGAN LAKESH 1900   33     290/ 18/ 21 1011.2R
PORT WASHINGTON  1830   35     290/ 11/ 18 1011.9R
MILWAUKEE LAKESH 1850   34     320/ 18/ 26   N/A
S MID LAKE BUOY  1850   40 48  340/ 23/ 29 1009.4R   4/ 4
KENOSHA   LAKESH 1900   36     320/ 25/ 31 1010.5
$$

TC  - TEMPERATURE IN CELSIUS
VSB - VISIBILITY IN STATUTE MILES
WCI - WIND CHILL INDEX
HX  - HEAT INDEX





USA.gov is the U.S. government's official web portal to all federal, state and local government web resources and services.